Location: Cheching
(60.0667°N, 164.2167°W)
Time: 01:09:51
(UTC+00:00)

O/OREOS (USA 219) - Pass Details

Date: 23 January 2021
Orbit: 621 x 646 km, 72.0° (Epoch: 22 May)

Event Time Altitude Azimuth Distance (km) Brightness Sun altitude
Rises 16:40:27 0° 164° (SSE) 2,953 ? -20.1°
Reaches altitude 10° 16:43:18 10° 146° (SE) 2,047 ? -19.8°
Maximum altitude 16:46:26 18° 103° (ESE) 1,568 ? -19.4°
Drops below altitude 10° 16:49:35 10° 60° (ENE) 2,054 ? -19.0°
Sets 16:52:26 0° 42° (NE) 2,965 ? -18.6°
